Retour au catalogue

SIRIUS-SINP-3U

ActifScienceSSO
NORAD 57185·PAYLOAD·🇷🇺 Russia
Ce nom de satellite n'a pas encore été confirmé par des sources officielles.

Lancé Jun 27, 2023 depuis Vostochny Cosmodrome

Loading…

Prochains Passages (prochaines 24 heures)

TLE

FraisSource: Space-Track

Époque: Sep 14, 2026, 21:43 UTC

1 57185U 23091V   26257.90507511  .00023349  00000-0  53469-3 0  9992
2 57185  97.4969 331.0222 0007310 110.1098 250.0937 15.42761598178590

Suivez SIRIUS-SINP-3U en temps réel avec AllMySat

Download on the App Store